sat.trackr.live / text

‹ back to catalog

STARLINK-1676

NORAD 46556 · 2020-070AA

PAYLOAD ACTIVE UNKNOWN

§ Identity

Operator
Country
US
Launch date
2020-10-06
Launch site
AFETR
Launch vehicle
Mass (kg)
RCS (m²)

Purposes: comms

External: N2YO · Heavens-Above · Gunter

§ Orbital elements

Epoch: 2026-05-25T03:32:30.930144Z

Period
91.92 min
Inclination
53.0379°
Eccentricity
0.0009564
Mean motion
15.66497694 rev/d
Perigee alt
362.5 km
Apogee alt
375.4 km
Semi-major
6,747.1 km
B*
7.1106e-4
RAAN
132.8337°
Arg perigee
28.1928°
Mean anomaly
331.9603°
Rev number
31,188

§ Raw data

STARLINK-16761 46556U 20070AA  26145.14758021  .00075844  00000+0  71106-3 0  99962 46556  53.0379 132.8337 0009564  28.1928 331.9603 15.66497694311889

JSON: /api/v1/satellites/46556 · /tle

For live sub-satellite position, see the globe view (requires WebGL).

§ Visibility from observer

Set your observer location to see the next 7 days of passes ≥ 10°. The values pass through the URL so the page stays shareable.

No JS? Fill the form by hand. The geolocation button needs JavaScript.